Weather in Rudki

Ukraine / Lviv District     49°39′10″N   23°29′12″E
temp.,
°C
wind,
m/s
gust,
m/s
humid.,
%
clouds,
%
prec.,
mm/h
press.,
hPa
HPBL,
m
29 june, wed
wed2900:00+19nw3688100 0.1 1019116
03:00+18wnw229456 0.1 101925
06:00+17nw229232 0.0 101828
09:00+23wsw11685 0.0 1017346
12:00+29s12475 0.0 1017931
15:00+32nne01365 0.0 10151919
18:00+32e22335 0.0 10132497
21:00+25sw235713 0.0 101360
30 june, thu
thu3000:00+21sse33655 0.1 101428
03:00+19sse12704 0.1 101411
06:00+19se22699 0.0 101427
09:00+26ese34495 0.0 1014284
12:00+32e44356 0.0 10141304
15:00+33ene43325 0.0 10132470
18:00+33ene533327 0.0 10122085
21:00+27e611555 0.0 1013402
1 july, fri
fri100:00+23ese613735 0.0 1014372
03:00+21ese5138163 0.0 1014365
06:00+18ese5109313 0.0 1014239
09:00+24se710673 0.0 1015582
12:00+29se78480 0.0 10141098
15:00+33ese66372 0.0 10131713
18:00+32se76369 0.0 10132050
21:00+28se612469 0.0 1013592
2 july, sat
sat200:00+24se7155665 0.1 1015533
03:00+19se497699 1.1 1016176
06:00+19w5994100 1.4 1018435
09:00+19w5791100 2.1 1020602
12:00+19wnw6891100 0.4 1021563
15:00+19wnw4690100 1.3 1022538
18:00+20nw5682100 0.1 1022712
21:00+19nw5787100 0.1 1022532
3 july, sun
sun300:00+18wnw3688100 0.0 1022449
03:00+18nw3689100 0.0 1021361
06:00+18wnw369099 0.0 1021343
09:00+18nw3492100 0.8 1022382
12:00+19nnw2387100 0.3 1022444
15:00+23ne226790 0.4 1020917
18:00+24e116594 0.3 1019770
21:00+21ene348084 0.4 101977